#timestamp,LO_Frequency,Hit,StdDev 
1674460815.2,286047002.8,P
1674460835.0,286047004.3,P
1674460835.9,286047004.3,P
1674460855.8,286047003.3,Y
1674460875.6,286046997.0,P
1674460895.4,286047000.2,N
1674460915.3,286046999.8,N
1674460935.1,286046999.9,N
1674460936.0,286046999.9,N
1674460955.8,286047001.6,N
1674460975.7,286047001.6,N
1674460995.5,286047001.7,N
1674461015.3,286047002.0,N
1674461035.2,286047003.1,N
1674461055.9,286047004.5,N
1674461075.7,286047002.9,N
1674461095.6,286047006.8,Y
1674461115.4,286047005.5,P
1674461135.2,286047005.8,N
1674461155.1,286047005.4,N
1674461156.0,286047005.4,N
1674461175.8,286047001.8,N
1674461195.6,286047009.1,Y
1674461215.5,286047001.8,P
1674461235.3,286047004.0,P
1674461255.1,286047002.8,N
1674461275.9,286046999.8,N
1674461295.7,286047002.8,N
1674461315.5,286047000.2,N
1674461335.3,286047001.9,N
1674461355.2,286047001.9,N
1674461375.0,286047004.3,Y
1674461375.9,286047004.3,P
1674461395.8,286047000.9,N
1674461415.6,286046999.7,N
1674461435.4,286047002.8,N
1674461455.2,286047001.8,N
1674461475.1,286047001.6,N
1674461476.0,286047001.6,N
1674461495.8,286047000.3,N
1674461515.6,286047002.8,N
1674461535.5,286047000.2,N
1674461555.3,286047000.0,N
1674461575.1,286047000.5,N
1674461595.9,286047000.1,N
1674461615.7,286047001.0,N
1674461635.5,286047000.4,N
1674461655.4,286046999.8,N
1674461675.2,286047002.5,N
1674461695.0,286047001.8,N
1674461695.9,286047001.8,N
1674461715.8,286047001.6,N
1674461735.6,286047002.4,N
1674461755.4,286047002.2,N
1674461775.3,286047001.8,N
1674461795.1,286047004.0,Y
1674461815.8,286047002.0,P
1674461835.7,286047000.3,N
1674461855.5,286047002.6,P
1674461875.3,286047004.3,Y
1674461895.2,286047000.1,P
1674461915.0,286047002.2,N
1674461915.9,286047002.2,N
1674461935.7,286047002.4,N
1674461955.6,286047000.0,N
1674461975.4,286046995.5,Y
1674461995.2,286047000.3,P
1674462015.1,286047001.8,P
1674462016.0,286047001.8,N
1674462035.8,286047005.8,Y
1674462055.6,286047003.3,P
1674462075.5,286047002.2,N
1674462095.3,286047000.6,N
1674462115.1,286047000.3,N
1674462135.9,286047000.3,N
1674462155.7,286047000.3,N
1674462175.5,286047001.5,N
1674462225.4,286047001.8,E
1674462235.3,286046999.8,N
1674462255.1,286046999.8,P
1674462275.9,286046999.5,P
1674462295.7,286047002.6,Y
1674462315.5,286046998.2,P
1674462335.4,286047000.1,N
1674462355.2,286047002.4,N
1674462375.0,286047000.6,N
1674462375.9,286047000.6,N
1674462395.8,286047002.5,N
1674462415.6,286047000.3,N
1674462435.4,286047004.2,Y
1674462455.3,286046999.8,P
1674462475.1,286047000.1,N
1674462495.8,286046996.5,P
1674462515.7,286047002.1,N
1674462535.5,286046999.8,N
1674462555.3,286047001.6,N
1674462575.2,286046999.7,N
1674462595.9,286047001.5,N
1674462615.7,286047002.0,N
1674462635.6,286046999.8,N
1674462655.4,286047002.2,N
1674462675.2,286047001.3,N
1674462695.1,286047003.4,N
1674462696.0,286047003.4,N
1674462715.8,286047001.8,N
1674462735.6,286047001.4,N
1674462755.5,286047004.3,N
1674462775.3,286047001.8,N
1674462795.1,286047001.9,N
1674462815.9,286047002.2,N
1674462835.7,286047002.1,N
1674462855.5,286047001.7,N
1674462875.4,286047004.3,N
1674462895.2,286047003.4,N
1674462915.0,286047003.5,N
1674462915.9,286047003.5,N
1674462935.8,286047006.0,Y
1674462955.6,286047002.3,P
1674462975.4,286046999.8,N
1674462995.3,286047002.4,N
1674463015.1,286046999.8,N
1674463016.0,286046999.8,N
1674463035.8,286047004.0,Y
1674463055.7,286047000.6,P
1674463075.5,286047000.3,N
1674463095.3,286046998.1,P
1674463115.2,286046999.5,N
1674463135.9,286046996.9,Y
1674463155.7,286046999.1,P
1674463175.6,286046998.7,P
1674463195.4,286046997.6,P
1674463215.2,286046999.3,N
1674463235.1,286046997.0,Y
1674463236.0,286046997.0,P
1674463255.8,286046998.2,N
1674463275.6,286046998.4,N
1674463295.5,286047001.2,N
1674463315.3,286047000.8,N
1674463335.1,286046998.7,N
1674463355.9,286046999.1,N
1674463375.7,286046998.9,N
1674463395.5,286046998.2,N
1674463415.4,286046999.5,N
1674463435.2,286046997.4,N
1674463455.0,286046997.6,N
1674463455.9,286046997.6,N
1674463475.8,286046995.9,Y
1674463495.6,286046996.8,P
1674463515.4,286046997.8,N
1674463535.3,286046997.1,P
1674463555.1,286046996.9,Y
1674463575.8,286047000.8,P
1674463595.7,286046998.5,N
1674463615.5,286046998.1,N
1674463635.3,286047000.6,N
1674463655.2,286046999.5,N
1674463675.0,286046999.6,N
1674463675.9,286046999.6,N
1674463695.7,286046996.9,N
1674463715.6,286046998.8,N
1674463735.4,286046999.6,N
1674463755.2,286046999.1,N
1674463775.1,286046997.1,N
1674463776.0,286046997.1,N
1674463795.8,286046997.3,N
1674463815.6,286046996.9,N
1674463835.5,286046999.2,N
1674463855.3,286047000.1,N
1674463875.1,286046997.4,N
1674463895.9,286046996.6,N
1674463915.7,286046995.6,Y
1674463935.5,286046997.2,P
1674463955.4,286046997.1,P
1674463975.2,286046996.9,P
1674463995.0,286046997.1,Y
1674463995.9,286046997.1,P
1674464015.8,286047001.1,P
1674464035.6,286046999.0,N
1674464055.4,286046999.0,N
1674464075.3,286046996.8,N
1674464095.1,286046999.5,N
1674464115.8,286046997.0,N
1674464135.7,286046997.9,N
1674464155.5,286046995.9,Y
1674464175.3,286046996.8,P
1674464195.2,286046997.0,P
1674464215.0,286046997.1,P
1674464215.9,286046997.1,Y
1674464235.8,286047000.8,P
1674464255.6,286047001.1,N
1674464275.4,286047000.6,N
1674464295.3,286047000.3,N
1674464315.1,286046998.3,N
1674464316.0,286046998.3,N
1674464335.8,286046998.7,N
1674464355.7,286046999.0,N
1674464375.5,286046998.6,N
1674464395.3,286046998.3,N
